CW4610 Weather Reports


Display with metric or nautical units.
time (UTC)temp
F
wind
direction
speed
MPH
gust
MPH
rain 1hr
in
rain 24hr
in
rain mn
in
humidity
%
barometer
mb
20260503011520 80 23 6.0 11.0 0.00 0.00 0.00 30 1013.0
20260503010519 81 23 8.0 13.0 0.00 0.00 0.00 29 1013.0
20260503005519 81 23 5.0 9.0 0.00 0.00 0.00 30 1013.0
20260503004519 80 45 7.0 13.0 0.00 0.00 0.00 29 1013.1
20260503003519 81 23 10.0 15.0 0.00 0.00 0.00 29 1013.2
20260503002519 81 23 9.0 18.0 0.00 0.00 0.00 29 1013.3
20260503001539 81 23 10.0 15.0 0.00 0.00 0.00 29 1013.4
20260503000519 81 23 10.0 17.0 0.00 0.00 0.00 29 1013.4
20260502235539 81 23 9.0 15.0 0.00 0.00 0.00 29 1013.5
20260502234518 82 0 8.0 14.0 0.00 0.00 0.00 30 1013.6
20260502233519 81 23 8.0 15.0 0.00 0.00 0.00 30 1013.6
20260502232519 81 23 9.0 14.0 0.00 0.00 0.00 31 1013.9
20260502231519 81 23 8.0 14.0 0.00 0.00 0.00 31 1014.0
20260502230543 81 23 8.0 13.0 0.00 0.00 0.00 32 1014.1
20260502225519 81 45 9.0 17.0 0.00 0.00 0.00 32 1014.5
20260502224519 81 23 9.0 16.0 0.00 0.00 0.00 33 1014.5
20260502223519 81 23 8.0 16.0 0.00 0.00 0.00 34 1014.5
20260502222530 81 23 10.0 18.0 0.00 0.00 0.00 36 1014.6
20260502221540 81 23 9.0 14.0 0.00 0.00 0.00 36 1014.7
20260502220519 81 0 12.0 18.0 0.00 0.00 0.00 36 1014.7
20260502215519 81 0 9.0 16.0 0.00 0.00 0.00 35 1014.8
20260502214519 81 23 11.0 15.0 0.00 0.00 0.00 34 1014.9
20260502213519 81 23 9.0 13.0 0.00 0.00 0.00 35 1015.0
20260502212519 81 23 7.0 13.0 0.00 0.00 0.00 36 1015.0
20260502211519 81 23 8.0 16.0 0.00 0.00 0.00 34 1015.1
20260502210611 80 0 8.0 14.0 0.00 0.00 0.00 35 1015.1
20260502205518 80 23 9.0 14.0 0.00 0.00 0.00 37 1015.2
20260502204520 80 23 8.0 14.0 0.00 0.00 0.00 35 1015.4
20260502203518 80 0 6.0 13.0 0.00 0.00 0.00 37 1015.4
20260502202544 79 338 6.0 10.0 0.00 0.00 0.00 40 1015.5
20260502201519 79 0 7.0 10.0 0.00 0.00 0.00 40 1015.8
20260502200518 78 0 7.0 10.0 0.00 0.00 0.00 42 1015.8
20260502195518 77 0 6.0 11.0 0.00 0.00 0.00 42 1016.1
20260502194519 76 0 6.0 11.0 0.00 0.00 0.00 44 1016.2
20260502193519 76 0 8.0 12.0 0.00 0.00 0.00 45 1016.2
20260502192519 75 23 8.0 12.0 0.00 0.00 0.00 45 1016.4
20260502191521 75 0 6.0 10.0 0.00 0.00 0.00 47 1016.5
20260502190548 75 0 7.0 12.0 0.00 0.00 0.00 47 1016.5
20260502185518 74 0 7.0 11.0 0.00 0.00 0.00 48 1016.6
20260502184520 74 0 6.0 10.0 0.00 0.00 0.00 48 1016.6
20260502183518 73 0 6.0 13.0 0.00 0.00 0.00 49 1016.6
20260502182519 72 23 6.0 12.0 0.00 0.00 0.00 52 1016.6
20260502181519 71 0 9.0 14.0 0.00 0.00 0.00 51 1016.7
20260502180518 71 0 8.0 13.0 0.00 0.00 0.00 52 1016.7
20260502170518 67 225 2.0 4.0 0.00 0.00 0.00 62 1017.1
20260502163521 63 315 2.0 5.0 0.00 0.00 0.00 69 1017.4
20260502162520 62 315 2.0 3.0 0.00 0.00 0.00 70 1017.5
20260502161521 61 45 0.0 1.0 0.00 0.00 0.00 72 1017.6
20260502160520 60 68 1.0 2.0 0.00 0.00 0.00 77 1017.6
20260502151520 54 315 1.0 2.0 0.00 0.00 0.00 85 1017.6
20260502150520 52 338 1.0 3.0 0.00 0.00 0.00 88 1017.6
20260502130522 48 338 2.0 2.0 0.00 0.00 0.00 92 1017.1
20260502123559 48 315 1.0 2.0 0.00 0.00 0.00 92 1017.1
20260502122519 48 315 3.0 4.0 0.00 0.00 0.00 92 1016.9
20260502121520 49 338 2.0 3.0 0.00 0.00 0.00 92 1016.8
20260502120520 49 315 2.0 3.0 0.00 0.00 0.00 92 1016.8
20260502115539 49 0 1.0 2.0 0.00 0.00 0.00 92 1016.7
20260502114519 49 338 2.0 3.0 0.00 0.00 0.00 92 1016.8
20260502113519 49 338 1.0 2.0 0.00 0.00 0.00 92 1016.8
20260502112519 49 0 1.0 2.0 0.00 0.00 0.00 92 1016.7
20260502111540 49 338 1.0 2.0 0.00 0.00 0.00 92 1016.7
20260502110520 49 338 2.0 3.0 0.00 0.00 0.00 91 1016.7
20260502105519 49 338 2.0 2.0 0.00 0.00 0.00 91 1016.6
20260502104539 50 338 1.0 2.0 0.00 0.00 0.00 91 1016.6
20260502103519 50 315 2.0 2.0 0.00 0.00 0.00 90 1016.6
20260502102520 50 338 1.0 3.0 0.00 0.00 0.00 90 1016.6
20260502101520 50 315 2.0 3.0 0.00 0.00 0.00 90 1016.5
20260502100519 51 338 2.0 3.0 0.00 0.00 0.00 89 1016.5
20260502091519 52 23 0.0 2.0 0.00 0.00 0.00 86 1016.1
20260502090519 52 23 1.0 2.0 0.00 0.00 0.00 84 1016.1
20260502071519 56 23 1.0 2.0 0.00 0.00 0.00 78 1016.0
20260502070521 56 23 1.0 2.0 0.00 0.00 0.00 78 1016.0
20260502065540 56 158 1.0 2.0 0.00 0.00 0.00 77 1015.8
20260502064520 56 158 1.0 2.0 0.00 0.00 0.00 76 1015.7
20260502063520 57 158 1.0 2.0 0.00 0.00 0.00 75 1015.6
20260502062519 57 158 0.0 1.0 0.00 0.00 0.00 74 1015.5
20260502061520 57 158 2.0 3.0 0.00 0.00 0.00 74 1015.5
20260502060521 58 135 1.0 2.0 0.00 0.00 0.00 74 1015.5
20260502055520 58 135 1.0 2.0 0.00 0.00 0.00 73 1015.4
20260502054520 58 113 0.0 1.0 0.00 0.00 0.00 72 1015.2
20260502052519 59 135 1.0 2.0 0.00 0.00 0.00 70 1015.1
20260502051542 60 135 0.0 2.0 0.00 0.00 0.00 69 1015.1
20260502050526 60 203 1.0 2.0 0.00 0.00 0.00 68 1015.1
20260502045523 61 203 0.0 1.0 0.00 0.00 0.00 68 1015.0
20260502044544 61 203 1.0 1.0 0.00 0.00 0.00 68 1015.0
20260502043546 62 203 1.0 2.0 0.00 0.00 0.00 66 1014.9
20260502042540 63 225 2.0 4.0 0.00 0.00 0.00 66 1014.6
20260502041520 63 180 2.0 3.0 0.00 0.00 0.00 64 1014.5
20260502040519 64 158 1.0 2.0 0.00 0.00 0.00 63 1014.5
20260502035540 64 158 1.0 2.0 0.00 0.00 0.00 62 1014.4
20260502034600 65 203 1.0 4.0 0.00 0.00 0.00 61 1014.2
20260502033520 66 203 2.0 3.0 0.00 0.00 0.00 59 1014.2
20260502032539 67 225 3.0 5.0 0.00 0.00 0.00 58 1014.1
20260502031519 68 248 2.0 5.0 0.00 0.00 0.00 56 1014.0
20260502030520 68 225 4.0 6.0 0.00 0.00 0.00 54 1014.0
20260502025519 69 225 3.0 5.0 0.00 0.00 0.00 51 1013.9
20260502024520 70 225 3.0 5.0 0.00 0.00 0.00 48 1013.9
20260502023520 71 315 3.0 7.0 0.00 0.00 0.00 42 1013.9
20260502022519 71 23 3.0 7.0 0.00 0.00 0.00 40 1013.8
20260502021519 72 23 4.0 7.0 0.00 0.00 0.00 40 1013.7
20260502020519 72 23 6.0 12.0 0.00 0.00 0.00 39 1013.7
20260502015539 72 23 6.0 11.0 0.00 0.00 0.00 39 1013.7
20260502014617 72 23 7.0 13.0 0.00 0.00 0.00 40 1013.8
20260502013519 72 45 7.0 14.0 0.00 0.00 0.00 40 1013.8
20260502012521 73 23 8.0 13.0 0.00 0.00 0.00 40 1014.0